Weather History for Craig, CO

Change the Weather History Date:

Saturday, February 8, 2014

  Actual Average Record
Temperature  
Mean Temperature 28 °F 19 °F  
Max Temperature 39 °F 32 °F 46 °F (2000)
Min Temperature 17 °F 6 °F -18 °F (2003)
Degree Days  
Heating Degree Days 37 46  
Month to date heating degree days 425 374  
Since 1 July heating degree days 5529 5458  
Cooling Degree Days 0 0  
Month to date cooling degree days 0 0  
Year to date cooling degree days 0 0  
Moisture  
Dew Point 25 °F    
Average Humidity 72    
Maximum Humidity 84    
Minimum Humidity 59    
Precipitation  
Precipitation T in 0.03 in 0.12 in (2005)
Month to date precipitation 0.16 0.23  
Year to date precipitation 1.19 1.11  
Sea Level Pressure  
Sea Level Pressure 29.96 in    
Wind  
Wind Speed 14 mph (WSW)    
Max Wind Speed 28 mph    
Max Gust Speed 33 mph    
Visibility 10 miles    
Events Snow    
T = Trace of Precipitation, MM = Missing Value Source: NWS Daily Summary

Daily Weather History Graph

Daily Weather History Graph

Search for Another Location

Airport:

Trip Planner

Search our weather history database for the weather conditions in past years. The results will help you decide how hot, cold, wet, or windy it might be!

Date:

Astronomy

Feb. 08, 2014 Rise Set
Actual Time 7:12 AM MST 5:36 PM MST
Civil Twilight 6:43 AM MST 6:05 PM MST
Nautical Twilight 6:11 AM MST 6:37 PM MST
Astronomical Twilight 5:39 AM MST 7:09 PM MST
Moon 12:32 PM MST (2/8) 2:27 AM MST (2/8)
Length of Visible Light 11h 21m
Length of Day
10h 24m
Waxing Gibbous, 69% of the Moon is Illuminated
Feb 8
Waxing Gibbous
Feb 14
Full
Feb 22
Last Quarter
Mar 1
New
Mar 8
First Quarter

Hourly Weather History & Observations

Time (MST) Temp. Windchill Dew Point Humidity Pressure Visibility Wind Dir Wind Speed Gust Speed Precip Events Conditions
12:53 AM 19.0 °F - 15.1 °F 85% 29.99 in 10.0 mi Calm Calm - N/A   Overcast
1:53 AM 23.0 °F 17.0 °F 17.1 °F 78% 29.92 in 10.0 mi North 4.6 mph - N/A   Overcast
2:53 AM 30.9 °F 21.7 °F 21.9 °F 69% 29.89 in 10.0 mi SW 11.5 mph - N/A   Overcast
3:53 AM 32.0 °F 21.6 °F 23.0 °F 69% 29.88 in 10.0 mi SW 15.0 mph - N/A   Overcast
4:53 AM 32.0 °F 20.5 °F 24.1 °F 73% 29.88 in 10.0 mi WSW 18.4 mph - 0.00 in   Overcast
5:53 AM 33.1 °F 20.9 °F 24.1 °F 70% 29.90 in 10.0 mi WSW 21.9 mph 29.9 mph N/A   Overcast
6:53 AM 33.1 °F 21.2 °F 24.1 °F 70% 29.92 in 10.0 mi WSW 20.7 mph - N/A   Overcast
7:53 AM 33.1 °F 23.4 °F 24.1 °F 70% 29.96 in 10.0 mi West 13.8 mph - N/A   Overcast
8:53 AM 32.0 °F 21.6 °F 24.1 °F 73% 30.00 in 10.0 mi West 15.0 mph - N/A   Overcast
9:53 AM 36.0 °F 23.5 °F 26.1 °F 67% 30.00 in 10.0 mi WSW 27.6 mph 32.2 mph N/A   Mostly Cloudy
10:53 AM 37.9 °F 27.6 °F 26.1 °F 62% 30.04 in 10.0 mi WSW 20.7 mph 33.4 mph N/A   Scattered Clouds
11:53 AM 37.9 °F 28.2 °F 27.0 °F 65% 30.03 in 10.0 mi West 18.4 mph - N/A   Partly Cloudy
12:53 PM 39.0 °F 28.0 °F 27.0 °F 62% 30.02 in 10.0 mi WSW 25.3 mph 33.4 mph N/A   Clear
1:53 PM 37.9 °F 28.2 °F 27.0 °F 65% 29.98 in 10.0 mi West 18.4 mph - N/A   Clear
2:53 PM 37.9 °F 27.9 °F 28.0 °F 68% 29.95 in 10.0 mi West 19.6 mph 29.9 mph N/A   Partly Cloudy
3:53 PM 37.9 °F 27.9 °F 27.0 °F 65% 29.95 in 10.0 mi West 19.6 mph - N/A   Scattered Clouds
4:53 PM 37.9 °F 28.5 °F 27.0 °F 65% 29.94 in 10.0 mi West 17.3 mph - N/A   Clear
5:53 PM 37.0 °F 26.7 °F 27.0 °F 67% 29.97 in 10.0 mi WSW 19.6 mph - N/A   Partly Cloudy
6:53 PM 36.0 °F 26.7 °F 27.0 °F 70% 29.99 in 10.0 mi WSW 15.0 mph - N/A   Partly Cloudy
7:53 PM 35.1 °F 31.0 °F 28.9 °F 78% 30.01 in 10.0 mi SW 4.6 mph - N/A   Overcast
8:53 PM 35.1 °F - 28.0 °F 76% 30.00 in 10.0 mi Calm Calm - N/A   Overcast
9:53 PM 34.0 °F - 28.9 °F 82% 29.99 in 10.0 mi Calm Calm - N/A   Overcast
10:53 PM 34.0 °F - 28.9 °F 82% 29.98 in 10.0 mi Calm Calm - N/A   Overcast
11:53 PM 33.1 °F - 30.0 °F 89% 29.93 in 7.0 mi Calm Calm - 0.00 in Snow Light Snow